Showing default

ASBM-1, 60422

Orbit data source: Space-Track

ASBM-1, 60422 is a Norwegian payload satellite in HEO that was launched on Mon, 12 Aug 2024 UTC via an FALCON 9 launch vehicle from the Air Force Western Test Range (AFWTR). Payloads include a variety of satellites, spacecraft, and rockets equipped with specific instruments for various scientific and technological missions. These include communications satellites like Starlink; space stations such as the ISS; scientific satellites like the Hubble; Earth observation satellites from companies like Planet Labs, Umbra, and HawkEye 360; GPS; miniature CubeSats for education and research; and military/defense satellites.

Loading next visibility...
ASBM-1 details
Identifier
60422, 2024-143A
Orbit
HEO
Last TLE update1 month ago
Origin
Flag of NOSPNOR/SFSSC (NO / NOR)
ManufacturerNGIS SSG
MissionOperational spacecraft
Bus & MotorGEOSTAR-3, BT-4?
Mass3,695 kg wet, 2,035 kg dry
Launch date (UTC)
2024-08-12 (4 months ago)
Launch vehicle
FALCON 9
Launch site
Air Force Western Test Range (AFWTR)
Object type
Payload
Rocket body
Debris
Shape & HBRUnknown
Radar Cross SectionLarge (>1 m²)

Expand to show TLE details & history

TLE from 1 month ago
0 ASBM-1
1 60422U 24143A   24318.48082385  .00000010  00000-0  00000-0 0  9995
2 60422  62.4075  67.4475 5340499 268.0963  33.1024  1.50426281  2881
Epoch: 2024-11-13T11:32Z
Definitive object data (Epoch: 2024-11-13T11:32:23.18Z)
Latitude-0.00002°
Longitude-158.75826°
Altitude17,078.118 km
Speed4.648 km/s
True Right ascension04h 29m 39s
True Declination0° 00' 00"
Sunlit
Object was in daylight at TLE epoch
Visualization TLE readout
Latitude62.07194°
Longitude-80.88672°
Altitude42,969.652 km
Speed1.942 km/s
Apparent Right ascension09h 45m 29s
Apparent Declination54° 40' 40"
Sunlit
Object is in daylight
Visualization observer readout
Local Sidereal Time22:06:01
Azimuth2.975° NNE
Elevation4.696°
Doppler factor1
Orbital elements
Apogee altitude42,979.421 km
Perigee altitude8,613.656 km
Semi-major axis32,174.676 km
Eccentricity0.5340499
Inclination62.4075°
RAAN67.4475°
Arg. of periapsis268.0963°
True anomaly92.0321°
Mean anomaly33.1024°
Eccentric anomaly59.45502°
Mean motion0.37607 °/min
BSTARUnknown
Orbital period957.26 mins
Loading maneuver chart data...
Loading historical data...
Loading historical data...
Loading historical data...
Loading historical data...
Loading historical data...
Loading historical data...
Loading historical data...
Other satellites on launch #143 in the year 2024 (2024-08-12 UTC)

ASBM-1 Visibility forecast

Observer location: undefined°, undefined

Span
Click to sort rows by Start time (UTC) header in descending order
Start Az.
Max El. time (UTC)
Max El. Az.
Max El.
End time (UTC)
End Az.
760 mins2024-12-27 08:28:49.380Z243.31° WSW2024-12-27 16:58:49.380Z318.266° NNW33.649°2024-12-27 21:08:49.380Z269.988° W
|